Zurück zum Katalog

CZ-6A DEB

AktivSSO
NORAD 55863·DEBRIS·🇨🇳 China

Gestartet Nov 11, 2022 von Taiyuan Satellite Launch Center

Loading…

Nächste Überflüge (nächste 24 Stunden)

TLE

AktuellSource: Space-Track

Epoche: Sep 13, 2026, 10:15 UTC

1 55863U 22151ZK  26256.42759439  .00001458  00000-0  76017-3 0  9994
2 55863  98.8333 254.6461 0055238  79.1692 281.5692 14.15287692191120

Verfolge CZ-6A DEB in Echtzeit mit AllMySat

Download on the App Store